COSMOS 839 DEB

Satellite information

Favourite Embed

Satellite Type and Status

DEBRISIN ORBIT

Key statistics

Satellite COSMOS 839 DEB at a glance.

Uptime

18056

Days in orbit

Revolutions

≈ 12.3

Per day

Orbit

MEO

Medium Earth Orbit

Inclination

65.9

Latest

Satellite identification and parameters

Extended collection of information and parameters for COSMOS 839 DEB.

Object identification

Identified? True

Debris? True

Object name: COSMOS 839 DEB

International designator: 1976-067AW

Object number (NORAD): 10622

Object ID (CCSDS): 10622

Country: COMMONWEALTH OF INDEPENDENT STATES (CIS)

Current information (Y/N): Y

RCS size: MEDIUM

Orbital parameters

Period: 116.719 minutes

Inclination: 65.9034 deg

SMA: 7911.434 km

Apoapsis: 2124.922 km

Periapsis: 941.677 km

RAAN: 237.806 deg

Eccentricy: 0.07478071

Argument of periapsis: 201.0436 deg

Mean anomaly: 253.318 deg

Mean motion: 12.33729389 rev/day

Mean motion (dot): -0.0000005 rev/day2

B* drag term: 0.000017559978 1/REarth

Two-line elements (TLE)

Creation date: Dec. 13, 2025, 5:47 p.m.

Reference frame: TEME

Reference center: EARTH

Epoch: Dec. 13, 2025, 6:17 a.m. UTC

TLE line 0: 0 COSMOS 839 DEB

TLE line 1: 1 10622U 76067AW 25347.26200301 -.00000050 00000-0 17560-4 0 9991

TLE line 2: 2 10622 65.9034 237.8060 0747807 201.0436 253.3180 12.33729389225979

Live tracking on map

Real-time ground track for satellite COSMOS 839 DEB.

In-orbit conjunctions

A list of the most updated potential collisions computed for object COSMOS 839 DEB.

Target Orbit TCA Probability of collision Miss distance Type
SCOUT B-1 DEB SSO 2025-05-10 03:22:37 0.0001078621 289.0 (m) DEBRIS
SCOUT B-1 R/B SSO 2024-09-04 20:11:42 0.0002259728 143.0 (m) ROCKET BODY

Associated space launch

ASAT target satellite

COSMOS 839 DEB was lifted into orbit during the mission ‘Kosmos-3M | DS-P1-M 9 (Kosmos-839)’, on board a Kosmos-3M space rocket.

The launch took place on July 8, 1976, 9:08 p.m. from 132/1 (132L).

For more information about the launch, click the button.

Launch to space Kosmos-3M | DS-P1-M 9 (Kosmos-839)
Kosmos-3M | DS-P1-M 9 (Kosmos-839)

Agency: N/A

Status: Launch Successful

Launch date: July 8, 1976, 9:08 p.m. UTC

Rocket: Kosmos-3M

Launch pad: 132/1 (132L)

Location: Plesetsk Cosmodrome, Russian Federation

...

Latest news about this satellite

There are no fresh news available about this satellite. Check back as we update our databases every day.


Newsletter sign-up

Weekly statistics, charts and insights to help you stay on top of the space industry.